Meteo Giornale » Osservazioni meteo Stati Uniti (USA) » New York City Central Park

ore: 17:19 - Osservazioni Meteo New York City Central Park
Lat. 40° 47' N Lon. 73° 58' W Alt. 47 metri s.l.m.

foschia America/New_York

14 °C

Foschia

Temp. 24 Ore

12 °C

16 °C

Nord

0 Km/h

Dew point 13 °C

Umidità 93 %

Visibilità  5 Km

Il sole sorge alle ore 05:59

Il sole tramonta alle ore 19:47

Data e Ora Cielo e Fenomeni T °C DP °C Um. % Pres. hPa Vis. km Vento km/h
Oggi h: 17:19 foschia Foschia 14 13 93 1005 5 N 0
Oggi h: 16:51 coperto_pioggia Pioggia Debole Foschia 14 14 100 1006 3 E/NE 9.3
Oggi h: 16:42 coperto_pioggia Pioggia Debole Foschia 14 14 100 1006 3 E/SE 9.3
Oggi h: 16:14 coperto_pioggia Pioggia Debole Foschia 15 14 93 1006 6 N 7.4
Oggi h: 15:51 foschia Foschia 14 14 100 1006 2 N 0
Oggi h: 15:21 foschia Foschia 15 14 93 1007 3 S/SE 7.4
Oggi h: 14:51 coperto_pioggia Pioggia Debole Foschia 15 14 93 1007 2 N 5.5
Oggi h: 14:07 foschia Foschia 16 15 93 1008 5 SE 9.3
Oggi h: 13:51 foschia Foschia 16 15 93 1008 8 N 7.4
Oggi h: 13:49 foschia Foschia 16 15 93 1008 8 N 9.3
Oggi h: 13:37 coperto Coperto 16 15 93 1008 13 N 5.5
Oggi h: 13:11 coperto_pioggia Pioggia Foschia 16 14 87 1008 5 SE 13
Oggi h: 12:51 coperto Coperto 16 14 87 1009 10 SE 16.7
Oggi h: 11:51 coperto Coperto 15 14 93 1010 10 SE 11.1
Oggi h: 10:51 coperto_pioggia Pioggia Debole 14 13 93 1011 11 N 0
Oggi h: 09:51 coperto Coperto 14 13 93 1012 10 N 9.3
Oggi h: 08:51 coperto_pioggia Pioggia Debole Foschia 13 13 100 1013 5 N 5.5
Oggi h: 08:48 coperto_pioggia Pioggia Foschia 13 13 100 1013 2 E/SE 13
Oggi h: 08:13 coperto_pioggia Pioggia Debole Foschia 13 12 93 1014 2 N 11.1
Oggi h: 07:51 coperto_pioggia Pioggia Foschia 12 12 100 1014 5 N 7.4
Oggi h: 06:55 coperto_pioggia Pioggia Foschia 12 12 100 1015 5 N 9.3
Oggi h: 06:51 coperto_pioggia Pioggia Foschia 12 12 100 1015 2 E/NE 9.3
Oggi h: 06:34 coperto_pioggia Pioggia Foschia 12 12 100 1015 5 N 9.3
Oggi h: 06:27 coperto_pioggia Pioggia Foschia 12 12 100 1015 3 E/NE 9.3
Oggi h: 06:14 coperto_pioggia Pioggia Debole Foschia 12 12 100 1015 5 N 9.3
Oggi h: 05:51 coperto_pioggia Pioggia Debole Foschia 13 12 93 1015 6 E 13
Oggi h: 05:09 coperto_pioggia Pioggia Debole Foschia 13 12 93 1016 6 S/SE 14.8
Oggi h: 04:51 coperto_pioggia Pioggia Debole Foschia 12 11 93 1016 8 N 5.5
Oggi h: 03:51 coperto_pioggia Pioggia Foschia 12 11 93 1017 2 N 9.3
Oggi h: 03:18 coperto_pioggia Pioggia Debole Foschia 12 11 93 1018 10 N 7.4
Oggi h: 03:06 coperto_pioggia Pioggia Debole 12 10 87 1018 11 E/NE 7.4
Oggi h: 02:51 coperto_pioggia Pioggia Debole 12 11 93 1018 11 E/NE 9.3
Oggi h: 02:07 coperto_pioggia Pioggia Debole 12 11 93 1019 11 N 9.3
Oggi h: 01:51 coperto_pioggia Pioggia Debole 13 11 87 1019 14 N 7.4
Oggi h: 01:15 coperto_pioggia Pioggia Debole 13 11 87 1020 10 N 7.4
Oggi h: 01:05 coperto_pioggia Pioggia Debole 13 11 87 1020 14 N 9.3
Oggi h: 00:51 coperto_pioggia Pioggia Debole 13 11 87 1021 14 N 0
Oggi h: 00:36 coperto_pioggia Pioggia Debole 13 11 87 1021 13 N 5.5
Ieri h: 23:51 coperto_pioggia Pioggia Debole 13 11 87 1022 10 N 5.5
Ieri h: 22:51 coperto_pioggia Pioggia Debole 12 8 76 1023 13 N 5.5
Ieri h: 21:51 coperto Coperto 13 7 66 1024 10 N 11.1
Ieri h: 21:06 coperto Coperto 14 6 58 1024 10 N 11.1
Ieri h: 20:51 coperto Coperto 14 4 50 1024 10 S/SE 9.3
Ieri h: 19:51 coperto Coperto 14 4 50 1024 10 SE 13
Ieri h: 18:51 coperto Coperto 15 4 47 1024 10 N 0
Ieri h: 17:51 molto_nuvoloso Molto Nuvoloso 16 5 47 1025 10 N 7.4